Weather WX

World > North America > United States > New Hampshire

Alton, New Hampshire Regional Weather

Lat: 43.45N, Lon: 71.22W
Wx Zone: NHZ009
Warning FLW WEATHER ALERT - (More Info. Click Here) Warning
Feedback

Alton, NH Regional Weather

Expires:201907170300;;758420
ASUS41 KGYX 170210
RWRGYX
WEATHER ROUNDUP FOR MAINE AND NEW HAMPSHIRE
NATIONAL WEATHER SERVICE GRAY ME
1000 PM EDT TUE JUL 16 2019


NHZ002-005-008-009-011-012-014-170300-
NEW HAMPSHIRE
  
CITY           SKY/WX    TMP DP  RH WIND       PRES   REMARKS
PORTSMOUTH     PTCLDY    73  65  75 SE7       29.94R                  
ROCHESTER      FAIR      73  64  73 CALM      29.95S                  
NASHUA         FAIR      77  71  82 VRB3      29.96S                  
MANCHESTER     FAIR      79  66  64 S6        29.94S                  
CONCORD          N/A    N/A N/A N/A MISG      29.95S                  
LACONIA        FAIR      71  66  84 NW3       29.96S                  
PLYMOUTH       FAIR      67  65  93 CALM      29.96S                  
BERLIN         FAIR      67  62  84 CALM      29.96R                  
WHITEFIELD     MOCLDY    67  63  87 CALM      29.96R                  
JAFFREY        FAIR      71  65  81 CALM      30.01R                  
KEENE          FAIR      72  67  84 CALM      29.98R                  
LEBANON        FAIR      72  66  81 S5        29.94S                  
MT WASHINGTON  FOG       55  55 100 W49G56      N/A  VSB 0            
$$


SKY/WX - Weather  TMP - Temperature  DP - Dew Point  RH - Relative Humidity
WIND - Wind Direction/Speed PRES - Barometric Pressure VSB - Visibility
WCI - Wind Chill Index E13G22 Wind - East Wind 13 mph/Gusts of 22 mph